• In Russia
  • List of Countries
  • For 7 days
  • Water Temperature
  • Satellite Maps
  • Weather Map
  • Weather Widgets
  • user-avatar
    Login

    Hourly Weather Saitsi

    Today, 21 February, Thursday

    Time Temperature Precipitation Wind Pressure Humidity
    00:00 +4°C° 0 mm 3 mps 748 mmHg 75%
    01:00 +3°C° 0 mm 4 mps 748 mmHg 77%
    02:00 +2°C° 0 mm 3 mps 748 mmHg 81%
    03:00 +2°C° 0 mm 3 mps 748 mmHg 80%
    04:00 +1°C° 0 mm 4 mps 748 mmHg 78%
    05:00 +1°C° 0 mm 4 mps 748 mmHg 77%
    06:00 +1°C° 0 mm 5 mps 749 mmHg 76%
    07:00 +1°C° 0 mm 5 mps 749 mmHg 74%
    08:00 +2°C° 0 mm 6 mps 749 mmHg 71%
    09:00 +3°C° 0 mm 7 mps 749 mmHg 65%
    10:00 +4°C° 0 mm 7 mps 749 mmHg 59%
    11:00 +5°C° 0 mm 8 mps 749 mmHg 53%
    12:00 +5°C° 0 mm 8 mps 749 mmHg 52%
    13:00 +6°C° 0 mm 8 mps 749 mmHg 51%
    14:00 +6°C° 0 mm 8 mps 749 mmHg 50%
    15:00 +6°C° 0 mm 8 mps 749 mmHg 52%
    16:00 +5°C° 0 mm 7 mps 749 mmHg 53%
    17:00 +5°C° 0 mm 7 mps 749 mmHg 54%
    18:00 +4°C° 0 mm 6 mps 749 mmHg 57%
    19:00 +5°C° 0 mm 4 mps 749 mmHg 61%
    20:00 +5°C° 0 mm 3 mps 749 mmHg 64%
    21:00 +5°C° 0 mm 3 mps 749 mmHg 65%
    22:00 +5°C° 0 mm 3 mps 749 mmHg 66%
    23:00 +4°C° 0 mm 4 mps 749 mmHg 67%

    Tomorrow, 22 February, Friday

    Time Temperature Precipitation Wind Pressure Humidity
    00:00 +4°C° 0 mm 3 mps 749 mmHg 68%
    01:00 +4°C° 0 mm 3 mps 748 mmHg 68%
    02:00 +4°C° 0 mm 3 mps 748 mmHg 69%
    03:00 +4°C° 0.1 mm 3 mps 747 mmHg 69%
    04:00 +3°C° 0.1 mm 3 mps 747 mmHg 68%
    05:00 +3°C° 0.1 mm 4 mps 746 mmHg 68%
    06:00 +3°C° 0.2 mm 3 mps 746 mmHg 69%
    07:00 +3°C° 0.2 mm 3 mps 746 mmHg 70%
    08:00 +3°C° 0.2 mm 3 mps 745 mmHg 72%
    09:00 +3°C° 0.3 mm 3 mps 745 mmHg 72%
    10:00 +3°C° 0.3 mm 3 mps 745 mmHg 72%
    11:00 +4°C° 0.3 mm 3 mps 745 mmHg 72%
    12:00 +1°C° 0.7 mm 5 mps 746 mmHg 78%
    13:00 -2°C° 0.7 mm 7 mps 746 mmHg 83%
    14:00 -5°C° 0.7 mm 9 mps 746 mmHg 88%
    15:00 -6°C° 0.4 mm 9 mps 747 mmHg 85%
    16:00 -8°C° 0.4 mm 9 mps 748 mmHg 82%
    17:00 -9°C° 0.4 mm 9 mps 749 mmHg 79%
    18:00 -9°C° 0 mm 9 mps 750 mmHg 74%
    19:00 -9°C° 0 mm 9 mps 751 mmHg 69%
    20:00 -10°C° 0 mm 9 mps 751 mmHg 64%
    21:00 -10°C° 0 mm 9 mps 752 mmHg 64%
    22:00 -11°C° 0 mm 8 mps 752 mmHg 64%
    23:00 -11°C° 0 mm 8 mps 753 mmHg 65%

    Day after tomorrow, 23 February, Saturday

    Time Temperature Precipitation Wind Pressure Humidity
    00:00 -12°C° 0 mm 7 mps 753 mmHg 65%
    01:00 -12°C° 0 mm 7 mps 753 mmHg 65%
    02:00 -12°C° 0 mm 7 mps 753 mmHg 65%
    03:00 -12°C° 0 mm 7 mps 753 mmHg 65%
    04:00 -12°C° 0 mm 7 mps 754 mmHg 65%
    05:00 -12°C° 0 mm 7 mps 754 mmHg 65%
    06:00 -12°C° 0 mm 8 mps 754 mmHg 66%
    07:00 -12°C° 0 mm 8 mps 755 mmHg 66%
    08:00 -12°C° 0 mm 9 mps 756 mmHg 67%
    09:00 -11°C° 0 mm 8 mps 756 mmHg 64%
    10:00 -10°C° 0 mm 8 mps 756 mmHg 62%
    11:00 -10°C° 0 mm 8 mps 757 mmHg 59%
    12:00 -8°C° 0 mm 8 mps 757 mmHg 60%
    13:00 -8°C° 0 mm 8 mps 757 mmHg 60%
    14:00 -8°C° 0 mm 7 mps 757 mmHg 60%
    15:00 -8°C° 0 mm 7 mps 757 mmHg 61%
    16:00 -9°C° 0 mm 7 mps 757 mmHg 63%
    17:00 -9°C° 0 mm 7 mps 758 mmHg 64%
    18:00 -9°C° 0 mm 6 mps 758 mmHg 66%
    19:00 -9°C° 0 mm 6 mps 758 mmHg 68%
    20:00 -10°C° 0 mm 6 mps 759 mmHg 70%
    21:00 -10°C° 0 mm 6 mps 759 mmHg 71%
    22:00 -10°C° 0 mm 6 mps 759 mmHg 71%
    23:00 -10°C° 0 mm 6 mps 759 mmHg 72%

    24 February, Sunday

    Time Temperature Precipitation Wind Pressure Humidity
    00:00 -11°C° 0 mm 5 mps 759 mmHg 73%
    01:00 -11°C° 0 mm 5 mps 759 mmHg 73%
    02:00 -11°C° 0 mm 5 mps 759 mmHg 74%
    03:00 -11°C° 0 mm 5 mps 759 mmHg 75%
    04:00 -11°C° 0 mm 5 mps 759 mmHg 76%
    05:00 -12°C° 0 mm 5 mps 759 mmHg 77%
    06:00 -11°C° 0 mm 5 mps 759 mmHg 76%
    07:00 -11°C° 0 mm 5 mps 759 mmHg 74%
    08:00 -11°C° 0 mm 5 mps 760 mmHg 73%
    09:00 -9°C° 0 mm 4 mps 760 mmHg 70%
    10:00 -8°C° 0 mm 4 mps 760 mmHg 67%
    11:00 -8°C° 0 mm 4 mps 760 mmHg 65%
    12:00 -7°C° 0 mm 4 mps 760 mmHg 64%
    13:00 -7°C° 0 mm 4 mps 760 mmHg 64%
    14:00 -5°C° 0 mm 4 mps 759 mmHg 63%
    15:00 -5°C° 0 mm 4 mps 759 mmHg 65%
    16:00 -5°C° 0 mm 4 mps 759 mmHg 67%
    17:00 -5°C° 0 mm 3 mps 759 mmHg 69%
    18:00 -6°C° 0 mm 3 mps 760 mmHg 72%
    19:00 -6°C° 0 mm 3 mps 760 mmHg 75%
    20:00 -6°C° 0 mm 2 mps 760 mmHg 78%
    21:00 -5°C° 0 mm 2 mps 760 mmHg 77%
    22:00 -5°C° 0 mm 2 mps 760 mmHg 76%
    23:00 -5°C° 0 mm 2 mps 761 mmHg 75%

    25 February, Monday

    Time Temperature Precipitation Wind Pressure Humidity
    00:00 -5°C° 0 mm 2 mps 761 mmHg 74%
    01:00 -5°C° 0 mm 2 mps 760 mmHg 73%
    02:00 -5°C° 0 mm 2 mps 760 mmHg 72%
    03:00 -6°C° 0 mm 2 mps 760 mmHg 72%
    04:00 -6°C° 0 mm 2 mps 760 mmHg 72%
    05:00 -6°C° 0 mm 2 mps 760 mmHg 72%
    06:00 -5°C° 0 mm 2 mps 760 mmHg 71%
    07:00 -5°C° 0 mm 2 mps 759 mmHg 71%
    08:00 -5°C° 0 mm 2 mps 759 mmHg 70%
    09:00 -4°C° 0 mm 3 mps 759 mmHg 66%
    10:00 -2°C° 0 mm 3 mps 759 mmHg 62%
    11:00 -1°C° 0 mm 4 mps 759 mmHg 58%
    12:00 0°C° 0 mm 4 mps 758 mmHg 56%
    13:00 +1°C° 0 mm 4 mps 758 mmHg 55%
    14:00 +1°C° 0 mm 4 mps 757 mmHg 53%
    15:00 +1°C° 0 mm 4 mps 756 mmHg 56%
    16:00 0°C° 0 mm 4 mps 756 mmHg 59%
    17:00 +1°C° 0 mm 3 mps 755 mmHg 63%
    18:00 0°C° 0 mm 3 mps 755 mmHg 65%
    19:00 -2°C° 0 mm 4 mps 754 mmHg 68%
    20:00 -2°C° 0 mm 4 mps 754 mmHg 70%
    21:00 -2°C° 0 mm 4 mps 753 mmHg 73%
    22:00 -2°C° 0 mm 4 mps 753 mmHg 75%
    23:00 -2°C° 0 mm 5 mps 753 mmHg 78%

    26 February, Tuesday

    Time Temperature Precipitation Wind Pressure Humidity
    00:00 -2°C° 0 mm 5 mps 752 mmHg 82%
    01:00 -2°C° 0 mm 5 mps 752 mmHg 86%
    02:00 -4°C° 0 mm 5 mps 751 mmHg 90%
    03:00 -3°C° 0 mm 6 mps 751 mmHg 89%
    04:00 -3°C° 0 mm 6 mps 751 mmHg 89%
    05:00 -3°C° 0 mm 6 mps 750 mmHg 89%
    06:00 -3°C° 0 mm 6 mps 750 mmHg 87%
    07:00 -3°C° 0 mm 6 mps 750 mmHg 86%
    08:00 -3°C° 0 mm 6 mps 750 mmHg 85%
    09:00 -2°C° 0 mm 6 mps 749 mmHg 79%
    10:00 0°C° 0 mm 7 mps 749 mmHg 74%
    11:00 +2°C° 0 mm 7 mps 749 mmHg 68%
    12:00 +2°C° 0 mm 6 mps 748 mmHg 68%
    13:00 +3°C° 0 mm 6 mps 747 mmHg 67%
    14:00 +3°C° 0 mm 5 mps 746 mmHg 67%
    15:00 +3°C° 0 mm 5 mps 745 mmHg 68%
    16:00 +3°C° 0 mm 5 mps 744 mmHg 69%
    17:00 +4°C° 0 mm 4 mps 743 mmHg 70%
    18:00 +3°C° 0 mm 4 mps 742 mmHg 72%
    19:00 +3°C° 0 mm 4 mps 742 mmHg 75%
    20:00 +1°C° 0 mm 5 mps 741 mmHg 77%
    21:00 +1°C° 0 mm 6 mps 740 mmHg 78%
    22:00 0°C° 0 mm 7 mps 739 mmHg 80%
    23:00 +1°C° 0 mm 8 mps 739 mmHg 81%
    Show more